Duchifat 3
1 44854U 19089C   25138.33816880  .00046683  00000-0  96927-3 0  9991
2 44854  36.9427 136.4130 0001798 184.9742 175.0996 15.44700827299573
TO-108
1 44881U 19093C   25138.87154278  .00001112  00000-0  13473-3 0  9994
2 44881  97.7926 214.9749 0012540 306.4785  53.5274 14.85558173292857
FloripaSat 1
1 44885U 19093G   25138.84397150  .00006475  00000-0  54952-3 0  9997
2 44885  97.8139 226.4033 0009090 274.3689  85.6495 14.98234257293494
RS-44
1 44909U 19096E   25138.58546867  .00000042  00000-0  12556-3 0  9997
2 44909  82.5223 241.8888 0217094 347.3062  12.2622 12.79740556251871
UPMSat 2
1 46276U 20061E   25138.46677091  .00071867  00000-0  70494-3 0  9999
2 46276  97.2443 212.1532 0001544 162.1782 197.9533 15.65850420262006
SALSAT
1 46495U 20068K   25138.46856503  .00008768  00000-0  38177-3 0  9998
2 46495  97.8599 115.4833 0009799 233.2703 126.7633 15.22440344255162
CubeSX-Sirius-HSE
1 47951U 21022V   25138.57563509  .00434091  72072-4  15154-2 0  9993
2 47951  97.4121  51.0424 0005815 104.5857 255.6060 15.89271371230358
CubeSX-HSE
1 47952U 21022W   25138.52464938  .00439552  74219-4  15090-2 0  9996
2 47952  97.4129  51.2519 0005387 106.7543 253.4321 15.89610406230367
GRBAlpha
1 47959U 21022AD  25138.57986909  .00395590  00000-0  14067-2 0  9994
2 47959  97.4128  51.3829 0005433 103.1517 257.0361 15.87978857229190
TUBIN
1 48900U 21059X   25138.84475828  .00044859  00000-0  58361-3 0  9999
2 48900  97.6750 306.3391 0002360 302.3879  57.7147 15.58647380216653
LEDSAT
1 49069U 21073D   25138.74366549  .00072399  00000-0  96154-3 0  9992
2 49069  97.3889 219.4166 0011801 157.6774 202.4998 15.57901693208034
CUTE
1 49263U 21088D   25138.48815966  .00019079  00000-0  38994-3 0  9991
2 49263  97.4506 214.1161 0006845 328.3862  31.6975 15.46173986201013
TeikyoSat 4
1 49396U 21102B   25138.58170259  .00003060  00000-0  20503-3 0  9995
2 49396  97.4118 177.8035 0011977 201.8860 158.1858 15.07550097193237
Z-Sat
1 49399U 21102E   25138.87884732  .00005079  00000-0  28041-3 0  9995
2 49399  97.3813 181.0533 0018480 174.0477 186.0978 15.14221925193698
KOSEN 1
1 49402U 21102H   25138.88252982  .00008158  00000-0  38048-3 0  9996
2 49402  97.3718 184.3098 0017047 150.2811 209.9396 15.19988708193991
HO-113
1 50466U 21131B   25138.88540058  .00000615  00000-0  20594-3 0  9991
2 50466  98.5091 228.3460 0004093 183.9231 176.1926 14.40787983178327
IRIS-A
1 51044U 22002BN  25138.72598719  .00441190  79543-4  11704-2 0  9993
2 51044  97.3199 218.4960 0007815 230.3882 129.6704 15.94583618186410
Foresail-1
1 52766U 22057AL  25138.40748119  .00232468  00000-0  94428-3 0  9990
2 52766  97.6055 287.8284 0004433 272.8974  87.1788 15.85618640166378
SNUGLITE 2
1 52899U 22065F   25138.88054152  .00001396  00000-0  28058-3 0  9995
2 52899  98.1659 281.0698 0007842 172.0818 188.0509 14.63160996153314
IO-117
1 53106U 22080B   25051.21822557 -.00000003  00000-0  00000+0 0  9995
2 53106  70.1434 106.3440 0008542  48.0089 312.1297  6.42557744 61200
UmKA 1 (RS40S)
1 57172U 23091G   25138.88030541  .00006661  00000-0  35803-3 0  9996
2 57172  97.5591 194.3774 0015671  54.7382 305.5313 15.15116342104198
CubeBel-2 (EU11S)
1 57175U 23091K   25138.89943650  .00010729  00000-0  51617-3 0  9995
2 57175  97.5589 195.4142 0013499  63.6501 296.6117 15.18888874104266
VERONIKA
1 58261U 23174F   25138.81592155  .00119770  00000-0  12151-2 0  9991
2 58261  97.4121 223.7808 0005915 150.5117 209.6477 15.64818408 85270
ENSO
1 58470U 23185J   25138.88219916  .00054379  00000-0  85041-3 0  9995
2 58470  97.3738 213.3434 0008960 158.0388 202.1251 15.53558298 81664
EIRSAT-1
1 58472U 23185L   25138.84506663  .00097332  00000-0  10542-2 0  9990
2 58472  97.3701 214.8631 0007549 164.5289 195.6202 15.63211139 81769
SONATE-2
1 59112U 24043Q   25138.33623302  .00020465  00000-0  60234-3 0  9997
2 59112  97.5110 269.0848 0011550 188.1752 171.9305 15.35034832 66927
MO-122
1 60209U 24125G   25138.55073284  .00020643  00000-0  59960-3 0  9991
2 60209  97.2820 350.4258 0018304 211.7548 148.2593 15.35341332 48574
GRBBeta
1 60237U 24128C   25138.57476080  .00004844  00000-0  36952-3 0  9999
2 60237  61.9900 156.2704 0050219  52.4262 308.1374 15.02424792 46897
Curium One
1 60242U 24128H   25138.44703036  .00008962  00000-0  62937-3 0  9992
2 60242  61.9799 155.3223 0050113  48.0633 312.4714 15.04748453 46904
ROBUSTA-3A
1 60243U 24128J   25138.44296665  .00007762  00000-0  55441-3 0  9997
2 60243  61.9868 156.0914 0048708  45.8129 314.6948 15.04316602 46897
CatSat
1 60246U 24125J   25138.58758464  .00012296  00000-0  41516-3 0  9998
2 60246  97.2612 349.9215 0043420 170.3981 189.8100 15.29892318 46625
HYPERVIEW-1G (RS66S)
1 61772U 24199AP  25138.83850484  .00021114  00000-0  62922-3 0  9990
2 61772  97.3563   7.7525 0011804 269.2870  90.7020 15.34630082 73620
AO-123
1 61781U 24199AY  25138.84132061  .00009113  00000-0  33455-3 0  9999
2 61781  97.3575   6.8633 0014047 275.4578  84.5059 15.28075009 73560
ZIMSAT 2
1 61783U 24199BA  25138.89413767  .00035452  00000-0  91007-3 0  9993
2 61783  97.3544   8.2675 0011685 265.2962  94.6949 15.39169878 76810
HADES-R (SO-124)
1 62690U 25009CK  25138.48072432  .00040436  00000-0  14923-2 0  9996
2 62690  97.4092 219.3989 0004770 159.3543 200.7890 15.27642617 18775
HYDRA-T
1 62692U 25009CM  25138.46956478  .00039665  00000-0  14546-2 0  9990
2 62692  97.4087 219.4125 0004527 156.5513 203.5934 15.27857293 18778
JINJUSat 1B
1 63210U 25052A   25138.21855302  .00013788  00000-0  63967-3 0  9992
2 63210  97.4438  32.6305 0005990  57.4350 302.7463 15.20144447  9854
NUSHSAT 1
1 63211U 25052B   25138.61128344  .00014766  00000-0  68111-3 0  9999
2 63211  97.4425  33.0153 0006119  60.6776 299.5069 15.20325683  9914
TEVEL2-4
1 63213U 25052D   25138.48910400  .00014147  00000-0  65808-3 0  9991
2 63213  97.4345  32.8053 0005602  74.4709 285.7144 15.20048464  9895
TEVEL2-5
1 63214U 25052E   25138.68694191  .00013928  00000-0  64812-3 0  9990
2 63214  97.4345  33.0000 0005531  73.7702 286.4141 15.20039481  9925
TEVEL2-6
1 63215U 25052F   25138.68850186  .00014028  00000-0  65349-3 0  9997
2 63215  97.4346  32.9986 0005614  74.2666 285.9188 15.20000196  9921
TEVEL2-1
1 63217U 25052H   25138.69652832  .00014125  00000-0  66185-3 0  9995
2 63217  97.4320  32.9677 0005904  82.6758 277.5148 15.19794573  9929
TEVEL2-2
1 63218U 25052J   25138.89433454  .00012779  00000-0  59921-3 0  9998
2 63218  97.4322  33.1625 0005933  82.8489 277.3420 15.19794110  9954
TEVEL2-3
1 63219U 25052K   25138.63102667  .00014331  00000-0  67163-3 0  9993
2 63219  97.4323  32.9030 0005932  83.3567 276.8343 15.19786114  9914
TEVEL2-8
1 63237U 25052AD  25138.21802291  .00013820  00000-0  66997-3 0  9993
2 63237  97.4386  32.4377 0010436  92.7171 267.5258 15.18587630  9847
TEVEL2-9
1 63238U 25052AE  25138.61492012  .00012965  00000-0  62952-3 0  9990
2 63238  97.4385  32.8262 0010549  91.8513 268.3930 15.18545765  9905
TEVEL2-7
1 63239U 25052AF  25138.22099561  .00013597  00000-0  66082-3 0  9990
2 63239  97.4386  32.4345 0010596  93.2207 267.0240 15.18501079  9846
HYDRA-W
1 63490U 25052BL  25137.47831097  .00037174  00000-0  16196-2 0  9990
2 63490  97.4333  31.8574 0014830  93.8052 266.4880 15.22002064  9740
HADES-ICM
1 63492U 25052BN  25138.47372406  .00030050  00000-0  13227-2 0  9995
2 63492  97.4335  32.8237 0015034  93.8316 266.4639 15.21697289  9897
